Lid_Strength_Index
5 5 5 5 6 6 6 6 6 6 6 6 6 6 6 6 5 5 5 5 4 4 3 3 3 4 7 10 11 6 3 4 3 4 6 9 12 14 15 13 13 13 13 11 10 9 10
5 5 6 6 6 6 6 6 6 5 5 6 6 6 5 5 5 5 5 5 4 4 4 4 3 3 7 14 7 6 6 7 6 5 6 9 12 12 14 14 13 12 12 11 10 10 10
5 5 6 6 6 6 6 6 6 5 5 4 4 4 4 4 4 5 4 4 4 4 4 3 3 4 8 10 6 6 7 8 7 5 7 6 10 11 12 14 13 13 15 13 11 11 11
6 6 6 6 6 6 6 6 5 5 4 4 4 4 4 4 4 3 3 3 3 2 2 2 2 4 10 6 5 7 6 8 6 6 7 7 7 11 13 13 13 14 15 18 14 12 11
6 6 6 6 7 6 6 6 5 5 5 4 5 4 4 3 3 2 1 1 1 0 0 0 3 4 10 4 7 6 6 9 7 7 7 6 9 12 12 15 17 17 19 18 16 12 12
6 7 6 6 6 6 6 5 5 5 5 5 5 4 3 2 1 0 0 0 1 1 2 2 2 6 6 7 5 5 5 6 8 8 9 9 11 15 17 17 20 20 18 18 16 13 13
7 7 6 6 6 6 5 5 5 5 5 5 4 3 2 0 -0 0 1 4 9 10 5 7 6 6 5 3 2 3 2 6 7 8 13 10 15 17 16 15 15 16 16 16 15 12 13
7 7 6 6 6 5 5 5 5 5 5 4 3 2 0 -0 0 0 2 6 7 4 8 5 5 5 3 3 6 4 2 7 9 12 10 12 14 13 13 13 13 15 16 16 15 13 13
7 7 7 6 6 5 5 5 4 4 4 3 2 1 0 -0 0 3 6 6 4 3 8 7 5 6 5 4 7 7 4 6 9 11 11 13 12 12 13 14 14 16 16 16 15 12 11
7 7 6 6 5 5 5 5 4 4 3 2 1 0 0 1 4 6 7 4 3 3 12 10 8 6 5 5 8 4 3 6 8 11 10 10 10 12 14 15 13 16 13 13 11 13 16
7 7 6 5 5 5 5 5 4 3 2 2 1 0 1 1 4 6 4 5 4 5 20 9 8 3 4 8 7 7 3 5 10 10 10 12 12 13 15 14 12 15 12 13 12 13 14
7 7 6 5 5 5 5 5 4 3 2 1 1 1 1 3 4 3 3 4 6 14 19 12 8 9 10 8 8 6 7 5 6 9 9 10 9 10 11 10 11 11 13 13 14 15 19
7 7 6 5 5 5 5 4 3 2 2 1 1 1 3 3 6 3 5 7 14 19 11 13 11 9 10 11 10 9 10 11 13 15 14 11 10 8 8 12 11 13 14 20 20 20 20
7 7 6 5 5 5 5 4 3 2 2 2 2 2 5 4 3 3 5 12 20 15 14 10 10 10 13 11 11 10 11 13 10 12 13 16 16 10 8 11 14 14 16 20 22 21 19
7 7 6 5 5 5 5 4 3 2 2 2 3 7 7 5 3 3 9 17 16 15 12 12 11 14 13 11 12 11 12 12 11 10 14 14 14 9 8 10 11 14 16 14 17 18 18
7 6 6 5 5 4 5 4 3 2 2 2 5 8 8 3 3 5 11 14 14 11 11 11 15 13 15 14 14 13 13 10 11 9 9 12 15 10 9 10 11 13 12 17 18 20 20
7 6 6 5 4 5 4 4 3 2 2 2 7 10 7 4 4 8 14 13 12 10 10 12 13 14 13 14 12 14 13 11 9 9 8 10 12 12 10 13 15 15 15 16 15 17 19
7 7 5 5 4 5 4 4 3 3 2 4 7 13 6 6 10 10 13 11 9 10 9 12 10 11 13 12 13 13 14 11 8 8 11 10 12 14 13 12 10 13 14 15 18 19 17
7 7 5 4 4 4 4 3 3 3 2 5 8 9 6 6 13 12 10 10 9 10 10 11 13 10 10 13 14 12 12 8 8 9 10 10 14 17 14 12 12 14 13 13 14 13 17
7 6 5 5 4 4 4 3 3 3 2 7 10 13 10 9 8 11 12 11 11 8 9 9 10 9 11 12 11 13 12 9 8 8 6 8 13 16 18 15 14 15 13 12 13 16 16
7 6 6 5 5 4 4 3 3 3 2 7 10 12 9 12 11 11 10 11 12 12 9 8 10 11 12 14 13 13 12 10 8 6 8 11 15 14 14 12 12 13 13 11 13 13 14
7 7 6 6 5 5 4 3 3 3 2 8 9 10 10 10 10 10 10 11 12 11 10 11 12 10 10 13 12 14 12 11 11 9 11 10 15 14 15 12 12 14 12 11 11 12 13
7 7 7 6 6 5 4 4 3 3 3 6 6 6 8 10 11 11 11 11 11 9 9 8 9 10 11 10 9 8 8 9 10 11 12 12 14 15 17 14 13 16 14 13 12 12 12
7 7 7 6 6 5 4 4 3 3 2 4 5 6 9 12 11 11 10 10 10 10 11 9 9 10 8 6 7 7 8 9 9 10 9 12 14 15 17 15 20 13 10 10 12 11 11
8 7 7 6 6 5 5 4 3 3 2 3 4 6 7 11 11 11 11 11 9 9 10 9 8 6 6 7 11 14 13 12 11 10 10 10 13 16 18 18 15 12 11 12 13 14 10
8 8 7 7 6 5 5 4 4 3 1 3 6 5 7 9 11 9 10 11 11 11 10 9 7 5 7 10 12 17 18 15 15 13 9 10 11 14 17 19 20 13 9 8 9 15 9
8 8 7 6 6 5 5 4 3 3 1 2 4 6 6 8 9 9 11 11 9 9 11 10 9 9 7 12 14 16 16 12 17 17 16 14 14 16 16 17 15 10 9 8 15 14 8
8 8 7 6 6 5 4 4 3 3 1 2 4 5 5 7 8 8 8 10 10 10 12 10 10 10 10 13 14 14 15 13 14 13 14 15 16 16 15 18 19 8 9 13 11 9 8
8 7 7 6 6 5 4 4 3 2 1 1 6 5 4 6 7 7 6 5 6 6 9 10 10 10 9 11 11 11 14 12 13 16 11 15 13 14 13 14 11 10 10 9 9 9 10